This is the latest recevied weather packets stored in our database for station/object CX5ACA-13. If no packets are shown the sender has not sent any weather packets the latest 10 day(s).
| Time | Temp. | Humidity | Pressure | Rain* | Wind** | Luminosity | Snow |
|---|---|---|---|---|---|---|---|
| 1777140229 | 20° C | 88% | 1013.2 hPa | 0 mm | - | 392 W/m² | - |
| 1777139925 | 20.56° C | 87% | 1013.3 hPa | 0 mm | - | 362 W/m² | - |
| 1777139623 | 21.11° C | 84% | 1013.3 hPa | 0 mm | - | 403 W/m² | - |
| 1777139323 | 20.56° C | 87% | 1013.4 hPa | 0 mm | - | 454 W/m² | - |
| 1777139020 | 20.56° C | 88% | 1013.3 hPa | 0 mm | - | 214 W/m² | - |
| 1777138717 | 20.56° C | 87% | 1013.3 hPa | 0 mm | - | 447 W/m² | - |
| 1777138411 | 20.56° C | 87% | 1013.4 hPa | 0 mm | - | 485 W/m² | - |
| 1777138108 | 20.56° C | 88% | 1013.3 hPa | 0 mm | - | 335 W/m² | - |
| 1777137804 | 20° C | 89% | 1013.5 hPa | 0 mm | - | 298 W/m² | - |
| 1777137501 | 20.56° C | 88% | 1013.6 hPa | 0 mm | - | 593 W/m² | - |
| 1777137198 | 21.11° C | 86% | 1013.8 hPa | 0 mm | - | 499 W/m² | - |
| 1777136895 | 20.56° C | 87% | 1013.7 hPa | 0 mm | - | 549 W/m² | - |
| 1777136591 | 21.11° C | 88% | 1013.8 hPa | 0 mm | - | 449 W/m² | - |
| 1777135987 | 20.56° C | 89% | 1013.8 hPa | 0 mm | - | 632 W/m² | - |
| 1777135687 | 20.56° C | 89% | 1014.1 hPa | 0 mm | - | 523 W/m² | - |
| 1777135383 | 21.11° C | 88% | 1014.1 hPa | 0 mm | - | 622 W/m² | - |
| 1777135080 | 21.11° C | 87% | 1014.1 hPa | 0 mm | - | 566 W/m² | - |
| 1777134777 | 21.11° C | 88% | 1014.1 hPa | 0 mm | - | 481 W/m² | - |
| 1777134473 | 21.11° C | 88% | 1014.2 hPa | 0 mm | - | 540 W/m² | - |
| 1777134169 | 21.11° C | 89% | 1014.4 hPa | 0 mm | - | 593 W/m² | - |
| 1777133866 | 21.11° C | 88% | 1014.5 hPa | 0 mm | - | 557 W/m² | - |
| 1777133563 | 21.11° C | 88% | 1014.6 hPa | 0 mm | - | 566 W/m² | - |
| 1777133262 | 21.11° C | 88% | 1014.7 hPa | 0 mm | - | 563 W/m² | - |
| 1777132962 | 21.11° C | 88% | 1014.6 hPa | 0 mm | - | 552 W/m² | - |
| 1777132658 | 21.11° C | 87% | 1014.7 hPa | 0 mm | - | 511 W/m² | - |
* Rain latest hour (hover to see other rain measurements)
** Current wind speed in m/s (hover to see current wind gust speed)